Regional Weather Roundup
Issued by NWS

Home | Current Version | Previous Version | Graphics & Text | Print | Product List | Glossary On
Versions: 1 2 3 4 5 6 7 8 9 10 11 12 13 14 15 16 17 18 19 20 21 22 23 24 25 26 27 28 29 30 31 32 33 34 35 36 37 38 39 40 41 42 43 44 45 46 47 48 49 50
000
ASUS45 KABQ 300110
RWRNM
NEW MEXICO REGIONAL WEATHER ROUNDUP
NATIONAL WEATHER SERVICE ALBUQUERQUE NM
700 PM MDT WED MAR 29 2017

NOTE: "FAIR" MEANS FEW OR NO CLOUDS BELOW 12,000 FEET AGL WITH NO
       SIGNIFICANT WEATHER OR OBSTRUCTIONS TO VISION.

      THIS PRODUCT IS RELEASED AS TWO VERSIONS.  ONE VERSION NEAR
      THE TOP OF THE HOUR CONTAINING PRELIMINARY DATA FROM ALBUQUERQUE
      AND OTHER STATIONS.  A FINAL VERSION WITH ADDITIONAL DATA IS
      ISSUED ABOUT 10 MINUTES AFTER THE HOUR.

NMZ501-503-504-510>518-300200-
NORTHWEST PLATEAU/NORTHCENTRAL MOUNTAINS

CITY           SKY/WX    TMP DP  RH WIND       PRES   REMARKS
FARMINGTON     FAIR      61  18  18 NW18G32   29.95R
LOS ALAMOS     RAIN      43  37  79 S5        30.07R
SANTA FE       CLOUDY    53  30  41 N10       30.01R
TAOS             N/A     48  28  46 SW3       30.03R
ANGEL FIRE     FAIR      42  28  58 W12       30.06R

$$
NMZ402-403-502-505>509-300200-
WESTCENTRAL MOUNTAINS/SOUTHWEST MOUNTAINS

CITY           SKY/WX    TMP DP  RH WIND       PRES   REMARKS
GALLUP         FAIR      58  17  20 NW20      30.06R
GRANTS         FAIR      56  17  21 N14G24    30.06R
SILVER CITY    FAIR      58  32  36 SE7       30.05R

$$
NMZ407-409-411-412-300200-
SOUTHERN DESERTS

CITY           SKY/WX    TMP DP  RH WIND       PRES   REMARKS
DEMING         CLOUDY    64  30  27 E3        30.02R
LAS CRUCES     CLOUDY    62  31  30 CALM      30.04R
HOLLOMAN AFB   MOCLDY    60  34  38 SE7       30.05R
ALAMOGORDO       N/A    N/A N/A N/A MISG        N/A
T OR C         LGT RAIN  52  41  66 E7        30.05R

$$
NMZ519>523-300200-
CENTRAL VALLEYS/CENTRAL HIGHLANDS

CITY           SKY/WX    TMP DP  RH WIND       PRES   REMARKS
ALBUQUERQUE    MOCLDY    61  29  29 VRB3      30.00R
DOUBLE EAGLE   MOCLDY    59  30  33 VRB6      30.01R
MORIARTY ARPT  CLOUDY    51  35  55 SE16      30.05R
CLINES CORNERS MOCLDY    41  33  73 SE8       30.08R
BELEN          MOCLDY    61  29  29 N3        30.00R
SOCORRO        FAIR      57  37  46 W7        30.01R

$$
NMZ524>526-539-540-300200-
SOUTHCENTRAL MOUNTAINS

CITY           SKY/WX    TMP DP  RH WIND       PRES   REMARKS
RUIDOSO        LGT RAIN  39  37  93 CALM      30.13R

$$
NMZ527>531-300200-
NORTHEAST HIGHLANDS/NORTHEAST PLAINS

CITY           SKY/WX    TMP DP  RH WIND       PRES   REMARKS
LAS VEGAS      CLOUDY    44  30  57 SE9       30.05R
RATON          FAIR      43  31  62 N15       30.00S
CLAYTON        FAIR      45  40  82 N9        29.97S

$$
NMZ532>537-300200-
EASTCENTRAL PLAINS

CITY           SKY/WX    TMP DP  RH WIND       PRES   REMARKS
TUCUMCARI      FAIR      52  38  58 N7        29.99R
CANNON AFB     MOCLDY    48  41  77 N15       30.00R
CLOVIS AIRPORT FAIR      48  36  61 N12       30.01R

$$
NMZ028-029-538-300200-
SOUTHEAST PLAINS

CITY           SKY/WX    TMP DP  RH WIND       PRES   REMARKS
ROSWELL        MOCLDY    56  37  49 CALM      30.06R
ARTESIA        FAIR      55  37  50 N5        30.05S
CARLSBAD       FAIR      56  36  47 N10       30.04R


$$




USA.gov is the U.S. government's official web portal to all federal, state and local government web resources and services.